Zurück zum Katalog

COSMOS 381

AktivMilitärLEO
NORAD 4783·PAYLOAD·🇷🇺 Russia

Gestartet Dec 2, 1970 von Plesetsk Cosmodrome

Loading…

Nächste Überflüge (nächste 24 Stunden)

TLE

AktuellSource: Space-Track

Epoche: Sep 14, 2026, 14:26 UTC

1 04783U 70102A   26257.60193939 -.00000001  00000-0  22598-4 0  9996
2 04783  74.0312 223.0281 0031373 224.4435 135.4167 13.75052430798449

Verfolge COSMOS 381 in Echtzeit mit AllMySat

Download on the App Store